Regional Weather Roundup
Issued by NWS

Home | Current Version | Previous Version | Graphics & Text | Print | Product List | Glossary On
Versions: 1 2 3 4 5 6 7 8 9 10 11 12 13 14 15 16 17 18 19 20 21 22 23 24 25 26 27 28 29 30 31 32 33 34 35 36 37 38 39 40 41 42 43 44 45 46 47 48 49 50
000
ASUS43 KBIS 232310
RWRND

NORTH DAKOTA REGIONAL WEATHER ROUNDUP
NATIONAL WEATHER SERVICE BISMARCK ND
600 PM CDT TUE MAY 23 2017

NOTE: "FAIR" INDICATES FEW OR NO CLOUDS BELOW 12,000 FEET WITH NO
SIGNIFICANT WEATHER AND/OR OBSTRUCTIONS TO VISIBILITY.


NDZ001>003-009>011-017-240000-
NORTHWEST NORTH DAKOTA

CITY           SKY/WX    TMP DP  RH WIND       PRES   REMARKS
WILLISTON      FAIR      71  29  21 SE9       30.00F
MINOT          FAIR      69  31  24 NE13      30.00F
MINOT AFB      SUNNY     69  32  25 N6        29.99F
$$

NDZ018>021-031>035-040>046-240000-
SOUTHWEST NORTH DAKOTA

CITY           SKY/WX    TMP DP  RH WIND       PRES   REMARKS
BISMARCK       PTSUNNY   67  35  30 NE14G20   30.01F
DICKINSON      FAIR      61  31  32 E6        30.02F
GARRISON         N/A     66  34  30 NE9G17    30.01F
HETTINGER ARPT SUNNY     65  33  30 N8G16     30.04F
$$

NDZ004>008-012>016-024-026-027-054-240000-
NORTHEAST NORTH DAKOTA

CITY           SKY/WX    TMP DP  RH WIND       PRES   REMARKS
GRAND FORKS    PTSUNNY   62  42  47 NE12      29.96F
GRND FRKS AFB  CLOUDY    61  42  48 NE12      29.97F
DEVILS LAKE    FAIR      62  38  40 NE12      30.00F
$$

NDZ022-023-025-028>030-036>039-047>053-240000-
SOUTHEAST NORTH DAKOTA

CITY           SKY/WX    TMP DP  RH WIND       PRES   REMARKS
FARGO          PTSUNNY   58  44  60 NE21      29.94S
JAMESTOWN      CLOUDY    58  41  53 NE20      29.98F
$$





USA.gov is the U.S. government's official web portal to all federal, state and local government web resources and services.